Location: Grand Rapids
(42.9630°N, 85.6680°W)
Time: 07:56:39
(UTC-04:00)

Tiros 1 - Pass Details

Date: 26 April 2025
Orbit: 620 x 652 km, 48.4° (Epoch: 13 May)

Event Time Altitude Azimuth Distance (km) Brightness Sun altitude
Exits shadow 03:53:51 44° 115° (ESE) 894 7.8 -25.7°
Drops below altitude 10° 03:57:41 10° 71° (ENE) 2,055 10.4 -25.3°
Sets 04:00:05 0° 66° (ENE) 2,969 11.5 -25.0°
